This demonstration page uses our WeatherBlox Daily Observations layout. Learn more.

Left ArrowRight Arrow

39.92423, -83.80882

Hourly Observations for January 19, 2018

Temp ( °F °C ) Dew Point ( °F °C ) Humidity (%) Winds ( mph kmh ) Pressure ( in mb ) Visibility ( mi km ) Precip ( " mm )
12:56 am 00:56 Clear 21 -6.1 13 -10.6 71 71 SW 16 26 30.16 1021 10 16 N/A
1:56 am 01:56 Clear 21 -6.1 13 -10.6 71 71 SW 13 20 30.16 1021 10 16 N/A
2:56 am 02:56 Clear 21 -6.1 12 -11.1 68 68 SW 12 19 30.17 1022 10 16 N/A
3:56 am 03:56 Clear 20 -6.7 12 -11.1 71 71 SW 10 17 30.17 1022 10 16 N/A
4:56 am 04:56 Clear 19 -7.2 12 -11.1 74 74 SSW 13 20 30.16 1021 10 16 N/A
5:56 am 05:56 Clear 19 -7.2 12 -11.1 74 74 SSW 13 20 30.16 1021 10 16 N/A
6:56 am 06:56 Clear 19 -7.2 12 -11.1 74 74 SW 12 19 30.16 1021 10 16 N/A
7:56 am 07:56 Sunny 19 -7.2 12 -11.1 74 74 SW 14 22 30.17 1022 10 16 N/A
8:56 am 08:56 Sunny 22 -5.6 13 -10.6 68 68 SW 16 26 30.16 1021 10 16 N/A
9:56 am 09:56 Sunny 25 -3.9 14 -10 63 63 SSW 17 28 30.14 1021 10 16 N/A
10:56 am 10:56 Sunny 30 -1.1 16 -8.9 56 56 SW 14 22 30.15 1021 10 16 N/A
11:56 am 11:56 Sunny 33 0.6 15 -9.4 47 47 SW 17 28 30.12 1020 10 16 N/A
12:56 pm 12:56 Sunny 32 undefined 18 -7.8 56 56 SSW 14 22 30.10 1019 10 16 N/A
1:56 pm 13:56 Sunny 34 1.1 17 -8.3 50 50 SSW 14 22 30.07 1018 10 16 N/A
2:56 pm 14:56 Sunny 36 2.2 18 -7.8 48 48 SSW 13 20 30.05 1018 10 16 N/A
3:56 pm 15:56 Sunny 37 2.8 19 -7.2 48 48 SSW 12 19 30.05 1018 10 16 N/A
4:56 pm 16:56 Sunny 37 2.8 19 -7.2 48 48 SW 13 20 30.05 1018 10 16 N/A
5:56 pm 17:56 Clear 36 2.2 19 -7.2 50 50 SSW 12 19 30.04 1017 10 16 N/A
6:56 pm 18:56 Clear 35 1.7 19 -7.2 52 52 SSW 14 22 30.03 1017 10 16 N/A
7:56 pm 19:56 Clear 34 1.1 20 -6.7 56 56 SSW 10 17 30.03 1017 10 16 N/A
8:56 pm 20:56 Clear 34 1.1 19 -7.2 54 54 SSW 13 20 30.02 1017 10 16 N/A
9:56 pm 21:56 Clear 34 1.1 20 -6.7 56 56 SSW 18 30 30.01 1016 10 16 N/A
11:56 pm 23:56 Clear 34 1.1 21 -6.1 59 59 SW 14 22 30.00 1016 10 16 N/A

Powered by AerisWeather